Weather History for Visalia, CA

Change the Weather History Date:

Tuesday, March 12, 2013

  Actual Average Record
Temperature  
Mean Temperature 60 °F -  
Max Temperature 75 °F 65 °F 83 °F (1936)
Min Temperature 44 °F 46 °F 30 °F (1950)
Degree Days  
Heating Degree Days 6    
Growing Degree Days 10 (Base 50)    
Moisture  
Dew Point 47 °F    
Average Humidity 67    
Maximum Humidity 87    
Minimum Humidity 38    
Precipitation  
Precipitation 0.00 in - - ()
Sea Level Pressure  
Sea Level Pressure 30.13 in    
Wind  
Wind Speed 3 mph (South)    
Max Wind Speed 7 mph    
Max Gust Speed -    
Visibility 8 miles    
Events      
Averages and records for this station are not official NWS values.
T = Trace of Precipitation, MM = Missing Value Source: NWS Daily Summary

Daily Weather History Graph

Daily Weather History Graph

Search for Another Location

Airport:

Trip Planner

Search our weather history database for the weather conditions in past years. The results will help you decide how hot, cold, wet, or windy it might be!

Date:

Astronomy

Mar. 12, 2013 Rise Set
Actual Time 7:12 AM PDT 7:02 PM PDT
Civil Twilight 6:46 AM PDT 7:28 PM PDT
Nautical Twilight 6:16 AM PDT 7:58 PM PDT
Astronomical Twilight 5:46 AM PDT 8:28 PM PDT
Moon 7:24 AM PDT (3/12) 8:19 PM PDT (3/12)
Length of Visible Light 12h 41m
Length of Day
11h 50m
New Moon, 1% of the Moon is Illuminated
Mar 12
New Moon
Mar 19
First Quarter
Mar 27
Full
Apr 2
Last Quarter
Apr 10
New

Hourly Weather History & Observations

Time (PDT) Temp. Windchill Dew Point Humidity Pressure Visibility Wind Dir Wind Speed Gust Speed Precip Events Conditions
12:15 AM 50.0 °F - 44.6 °F 82% 30.15 in 5.0 mi ESE 4.6 mph - N/A   Clear
12:35 AM 51.8 °F - 46.4 °F 82% 30.15 in 7.0 mi SE 5.8 mph - N/A   Clear
12:55 AM 50.0 °F - 44.6 °F 82% 30.15 in 6.0 mi SE 4.6 mph - N/A   Clear
1:15 AM 51.8 °F - 44.6 °F 76% 30.15 in 6.0 mi ESE 4.6 mph - N/A   Clear
1:35 AM 51.8 °F - 44.6 °F 76% 30.15 in 7.0 mi ESE 5.8 mph - N/A   Clear
1:55 AM 50.0 °F - 44.6 °F 82% 30.15 in 7.0 mi ESE 4.6 mph - N/A   Clear
2:15 AM 51.8 °F - 44.6 °F 76% 30.15 in 6.0 mi ESE 4.6 mph - N/A   Clear
2:35 AM 50.0 °F - 44.6 °F 82% 30.15 in 5.0 mi ESE 5.8 mph - N/A   Clear
2:55 AM 48.2 °F - 44.6 °F 87% 30.15 in 6.0 mi East 4.6 mph - N/A   Clear
3:15 AM 48.2 °F - 42.8 °F 82% 30.14 in 8.0 mi East 3.5 mph - N/A   Clear
3:35 AM 48.2 °F - 42.8 °F 82% 30.13 in 7.0 mi Calm Calm - N/A   Clear
3:55 AM 48.2 °F - 42.8 °F 82% 30.13 in 6.0 mi Calm Calm - N/A   Clear
4:15 AM 48.2 °F - 42.8 °F 82% 30.13 in 7.0 mi Calm Calm - N/A   Clear
4:35 AM 48.2 °F - 42.8 °F 82% 30.13 in 6.0 mi Calm Calm - N/A   Clear
4:55 AM 46.4 °F - 42.8 °F 87% 30.13 in 4.0 mi Calm Calm - N/A   Clear
5:15 AM 46.4 °F - 41.0 °F 81% 30.13 in 5.0 mi Calm Calm - N/A   Clear
5:35 AM 46.4 °F - 41.0 °F 81% 30.13 in 4.0 mi Calm Calm - N/A   Clear
5:55 AM 46.4 °F - 41.0 °F 81% 30.13 in 5.0 mi Calm Calm - N/A   Clear
6:15 AM 46.4 °F - 41.0 °F 81% 30.13 in 5.0 mi Calm Calm - N/A   Clear
6:35 AM 44.6 °F - 39.2 °F 81% 30.13 in 5.0 mi Calm Calm - N/A   Clear
6:55 AM 44.6 °F - 39.2 °F 81% 30.13 in 5.0 mi Calm Calm - N/A   Clear
7:15 AM 44.6 °F 43.1 °F 39.2 °F 81% 30.14 in 4.0 mi ESE 3.5 mph - N/A   Clear
7:35 AM 44.6 °F 43.1 °F 39.2 °F 81% 30.14 in 7.0 mi ESE 3.5 mph - N/A   Clear
7:55 AM 46.4 °F 45.2 °F 42.8 °F 87% 30.15 in 9.0 mi ESE 3.5 mph - N/A   Clear
8:15 AM 46.4 °F 44.3 °F 42.8 °F 87% 30.15 in 10.0 mi ESE 4.6 mph - N/A   Clear
8:35 AM 51.8 °F - 44.6 °F 76% 30.16 in 10.0 mi ESE 4.6 mph - N/A   Clear
8:55 AM 53.6 °F - 46.4 °F 77% 30.16 in 10.0 mi ESE 3.5 mph - N/A   Clear
9:15 AM 55.4 °F - 46.4 °F 72% 30.17 in 10.0 mi SE 4.6 mph - N/A   Clear
9:35 AM 55.4 °F - 46.4 °F 72% 30.17 in 10.0 mi Calm Calm - N/A   Clear
9:55 AM 55.4 °F - 48.2 °F 77% 30.17 in 9.0 mi Calm Calm - N/A   Clear
10:15 AM 57.2 °F - 48.2 °F 72% 30.17 in 10.0 mi Calm Calm - N/A   Clear
10:35 AM 59.0 °F - 48.2 °F 67% 30.17 in 10.0 mi Calm Calm - N/A   Clear
10:55 AM 60.8 °F - 50.0 °F 68% 30.17 in 10.0 mi Calm Calm - N/A   Clear
11:15 AM 62.6 °F - 50.0 °F 63% 30.17 in 10.0 mi Calm Calm - N/A   Clear
11:35 AM 62.6 °F - 48.2 °F 59% 30.17 in 10.0 mi Calm Calm - N/A   Clear
11:55 AM 64.4 °F - 48.2 °F 56% 30.16 in 10.0 mi Calm Calm - N/A   Clear
12:15 PM 66.2 °F - 48.2 °F 52% 30.16 in 10.0 mi Calm Calm - N/A   Clear
12:35 PM 66.2 °F - 50.0 °F 56% 30.15 in 10.0 mi Calm Calm - N/A   Clear
12:55 PM 66.2 °F - 48.2 °F 52% 30.14 in 10.0 mi Calm Calm - N/A   Clear
1:15 PM 69.8 °F - 51.8 °F 53% 30.13 in 10.0 mi NNW 4.6 mph - N/A   Clear
1:35 PM 69.8 °F - 51.8 °F 53% 30.13 in 10.0 mi West 3.5 mph - N/A   Clear
1:55 PM 71.6 °F - 50.0 °F 46% 30.11 in 10.0 mi WNW 3.5 mph - N/A   Clear
2:15 PM 71.6 °F - 51.8 °F 50% 30.10 in 10.0 mi Calm Calm - N/A   Clear
2:35 PM 71.6 °F - 51.8 °F 50% 30.09 in 10.0 mi West 4.6 mph - N/A   Clear
2:55 PM 73.4 °F - 46.4 °F 38% 30.09 in 10.0 mi NNW 4.6 mph - N/A   Clear
3:15 PM 73.4 °F - 46.4 °F 38% 30.08 in 10.0 mi NW 3.5 mph - N/A   Clear
3:35 PM 71.6 °F - 50.0 °F 46% 30.08 in 10.0 mi WNW 5.8 mph - N/A   Clear
3:55 PM 73.4 °F - 50.0 °F 44% 30.08 in 10.0 mi West 5.8 mph - N/A   Clear
4:15 PM 73.4 °F - 51.8 °F 47% 30.07 in 10.0 mi West 5.8 mph - N/A   Clear
4:35 PM 73.4 °F - 51.8 °F 47% 30.06 in 10.0 mi West 4.6 mph - N/A   Clear
4:55 PM 73.4 °F - 51.8 °F 47% 30.06 in 10.0 mi West 5.8 mph - N/A   Clear
5:15 PM 75.2 °F - 50.0 °F 41% 30.06 in 10.0 mi West 5.8 mph - N/A   Clear
5:35 PM 73.4 °F - 51.8 °F 47% 30.06 in 10.0 mi West 4.6 mph - N/A   Clear
5:55 PM 73.4 °F - 51.8 °F 47% 30.06 in 10.0 mi West 4.6 mph - N/A   Clear
6:15 PM 71.6 °F - 51.8 °F 50% 30.07 in 10.0 mi WSW 4.6 mph - N/A   Clear
6:35 PM 69.8 °F - 50.0 °F 49% 30.07 in 10.0 mi WSW 4.6 mph - N/A   Clear
6:55 PM 69.8 °F - 48.2 °F 46% 30.07 in 10.0 mi WSW 3.5 mph - N/A   Clear
7:15 PM 64.4 °F - 50.0 °F 59% 30.08 in 10.0 mi SW 4.6 mph - N/A   Clear
7:35 PM 62.6 °F - 51.8 °F 68% 30.08 in 10.0 mi SSW 4.6 mph - N/A   Clear
7:55 PM 62.6 °F - 51.8 °F 68% 30.09 in 10.0 mi Calm Calm - N/A   Clear
8:15 PM 62.6 °F - 51.8 °F 68% 30.10 in 9.0 mi Calm Calm - N/A   Clear
8:35 PM 60.8 °F - 51.8 °F 72% 30.11 in 7.0 mi SSW 4.6 mph - N/A   Clear
8:55 PM 60.8 °F - 50.0 °F 68% 30.12 in 7.0 mi SSW 3.5 mph - N/A   Clear
9:15 PM 59.0 °F - 50.0 °F 72% 30.12 in 8.0 mi SW 6.9 mph - N/A   Clear
9:35 PM 59.0 °F - 48.2 °F 67% 30.13 in 10.0 mi SW 6.9 mph - N/A   Clear
9:55 PM 57.2 °F - 48.2 °F 72% 30.14 in 10.0 mi WSW 4.6 mph - N/A   Clear
10:15 PM 59.0 °F - 46.4 °F 63% 30.15 in 10.0 mi WSW 3.5 mph - N/A   Clear
10:55 PM 55.4 °F - 46.4 °F 72% 30.15 in 8.0 mi SE 3.5 mph - N/A   Clear
11:15 PM 55.4 °F - 46.4 °F 72% 30.16 in 5.0 mi SE 6.9 mph - N/A   Clear
11:35 PM 55.4 °F - 48.2 °F 77% 30.16 in 5.0 mi SE 5.8 mph - N/A   Clear
11:55 PM 55.4 °F - 48.2 °F 77% 30.15 in 5.0 mi SE 4.6 mph - N/A   Clear